This is the latest recevied weather packets stored in our database for station/object IZ1RFL-3. If no packets are shown the sender has not sent any weather packets the latest 10 day(s).
| Time | Temp. | Humidity | Pressure | Rain* | Wind** | Luminosity | Snow |
|---|---|---|---|---|---|---|---|
| 1777789864 | 16.11° C | 52% | 1020.2 hPa | - | - | - | - |
| 1777788964 | 14.44° C | 57% | 1020.2 hPa | - | - | - | - |
| 1777788064 | 15° C | 58% | 1020.1 hPa | - | - | - | - |
| 1777787164 | 15° C | 57% | 1020.1 hPa | - | - | - | - |
| 1777786264 | 13.89° C | 58% | 1020.1 hPa | - | - | - | - |
| 1777785364 | 13.33° C | 59% | 1019.9 hPa | - | - | - | - |
| 1777784464 | 13.33° C | 61% | 1019.8 hPa | - | - | - | - |
| 1777783564 | 12.78° C | 61% | 1019.8 hPa | - | - | - | - |
| 1777782664 | 12.78° C | 62% | 1019.8 hPa | - | - | - | - |
| 1777781764 | 12.78° C | 62% | 1019.8 hPa | - | - | - | - |
| 1777780864 | 12.78° C | 63% | 1019.9 hPa | - | - | - | - |
| 1777779964 | 13.33° C | 60% | 1019.8 hPa | - | - | - | - |
| 1777779064 | 13.33° C | 61% | 1019.8 hPa | - | - | - | - |
| 1777778164 | 13.89° C | 60% | 1019.9 hPa | - | - | - | - |
| 1777777263 | 13.89° C | 60% | 1020 hPa | - | - | - | - |
| 1777776363 | 13.33° C | 60% | 1020 hPa | - | - | - | - |
| 1777775463 | 13.89° C | 59% | 1020.1 hPa | - | - | - | - |
| 1777774563 | 13.33° C | 60% | 1020.1 hPa | - | - | - | - |
| 1777773663 | 13.89° C | 59% | 1020.1 hPa | - | - | - | - |
| 1777772763 | 13.89° C | 60% | 1020.2 hPa | - | - | - | - |
| 1777771863 | 14.44° C | 59% | 1020 hPa | - | - | - | - |
| 1777770963 | 14.44° C | 59% | 1020.1 hPa | - | - | - | - |
| 1777770063 | 14.44° C | 58% | 1020.1 hPa | - | - | - | - |
| 1777769163 | 15° C | 58% | 1020.3 hPa | - | - | - | - |
| 1777768263 | 15° C | 58% | 1020.4 hPa | - | - | - | - |
* Rain since midnight (hover to see other rain measurements)
** Current wind speed in m/s (hover to see current wind gust speed)